GFSNGP_500_temp_057.txt.gz
Temp
-15 -16 -16 -15 -15 -15 -13 -12 -11 -10 -9 -9 -9 -11 -11 -10 -10 -10 -10 -9 -8 -7 -5 -7 -8 -7 -6 -6 -6 -6 -6 -6 -5 -5 -5 -4 -4 -4 -4 -4 -4 -5 -4 -4
-16 -16 -16 -16 -15 -15 -14 -12 -11 -11 -10 -10 -10 -11 -11 -10 -11 -11 -11 -10 -8 -7 -6 -3 -5 -7 -6 -5 -6 -7 -7 -6 -6 -5 -4 -4 -4 -5 -5 -4 -4 -4 -4 -5
-18 -19 -18 -17 -16 -15 -15 -13 -13 -13 -12 -12 -10 -9 -11 -11 -11 -11 -11 -10 -9 -7 -6 -5 -4 -7 -7 -7 -7 -8 -8 -7 -6 -6 -5 -4 -4 -5 -4 -5 -5 -4 -5 -5
-20 -21 -20 -16 -17 -17 -16 -15 -13 -14 -14 -13 -10 -9 -10 -11 -11 -10 -11 -11 -10 -9 -8 -7 -5 -6 -6 -6 -5 -9 -9 -8 -7 -6 -6 -5 -4 -4 -5 -5 -5 -4 -5 -5
-20 -21 -20 -19 -17 -17 -17 -16 -16 -15 -14 -14 -12 -10 -9 -11 -11 -11 -10 -11 -9 -9 -8 -7 -6 -5 -7 -5 -7 -6 -8 -8 -7 -7 -6 -5 -5 -5 -5 -5 -5 -5 -5 -5
-20 -21 -20 -19 -20 -20 -19 -16 -17 -17 -16 -13 -13 -11 -11 -10 -10 -11 -10 -11 -9 -8 -7 -8 -8 -8 -7 -6 -6 -7 -7 -8 -8 -8 -6 -6 -6 -5 -5 -5 -5 -5 -5 -5
-21 -21 -20 -20 -20 -20 -20 -16 -16 -16 -15 -12 -12 -12 -11 -10 -11 -11 -10 -10 -10 -10 -8 -7 -8 -9 -7 -6 -7 -7 -7 -7 -8 -8 -8 -7 -6 -6 -5 -5 -5 -5 -4 -4
-20 -20 -21 -20 -20 -20 -20 -19 -17 -17 -16 -14 -13 -12 -12 -11 -11 -11 -10 -9 -11 -10 -9 -7 -8 -7 -6 -6 -5 -6 -7 -8 -8 -8 -8 -8 -7 -6 -6 -5 -5 -5 -5 -4
-20 -20 -20 -19 -20 -20 -19 -18 -19 -18 -17 -15 -14 -12 -12 -12 -11 -12 -11 -9 -10 -10 -10 -9 -9 -8 -6 -7 -8 -6 -7 -8 -8 -8 -8 -8 -8 -7 -6 -6 -5 -5 -5 -5
-20 -20 -19 -20 -19 -19 -19 -18 -19 -19 -17 -16 -14 -13 -12 -13 -12 -11 -12 -10 -10 -10 -10 -9 -9 -9 -8 -7 -7 -6 -7 -8 -8 -7 -8 -8 -8 -8 -7 -7 -6 -6 -6 -6
-20 -20 -20 -19 -19 -18 -18 -18 -18 -18 -18 -17 -16 -15 -13 -13 -13 -12 -11 -10 -10 -10 -10 -9 -10 -10 -8 -7 -7 -7 -6 -7 -7 -7 -7 -8 -8 -8 -7 -7 -7 -6 -6 -6
-19 -20 -19 -19 -19 -19 -19 -18 -18 -19 -19 -19 -19 -18 -15 -13 -12 -12 -12 -11 -10 -10 -11 -9 -9 -10 -9 -8 -8 -7 -6 -6 -7 -8 -8 -8 -8 -8 -7 -7 -7 -7 -7 -6
-19 -19 -20 -19 -19 -19 -18 -18 -18 -19 -20 -20 -20 -19 -18 -13 -13 -13 -12 -12 -11 -11 -11 -10 -10 -10 -8 -9 -9 -8 -7 -7 -7 -8 -8 -8 -8 -8 -7 -7 -7 -7 -8 -7
-20 -20 -20 -19 -20 -19 -18 -18 -18 -19 -18 -19 -19 -18 -17 -17 -15 -13 -13 -13 -12 -12 -12 -12 -11 -9 -9 -8 -8 -8 -7 -7 -7 -7 -7 -8 -8 -8 -7 -8 -8 -8 -8 -8
-19 -20 -20 -20 -19 -19 -18 -18 -18 -18 -18 -18 -18 -17 -16 -16 -15 -14 -13 -13 -13 -13 -12 -11 -10 -9 -8 -9 -8 -7 -7 -7 -7 -7 -7 -7 -8 -8 -8 -8 -8 -8 -8 -8
-20 -19 -19 -20 -20 -19 -19 -18 -18 -18 -17 -17 -17 -17 -17 -15 -15 -15 -14 -14 -13 -13 -13 -11 -11 -9 -9 -9 -8 -7 -7 -6 -6 -6 -6 -7 -8 -8 -8 -8 -8 -8 -8 -8
-20 -20 -20 -19 -20 -19 -18 -19 -18 -17 -17 -17 -17 -16 -16 -15 -15 -15 -15 -14 -14 -13 -12 -11 -10 -9 -9 -8 -8 -7 -7 -7 -7 -7 -6 -7 -8 -8 -7 -8 -9 -9 -8 -8
-20 -20 -20 -20 -20 -19 -19 -19 -18 -18 -17 -17 -16 -15 -15 -15 -15 -15 -14 -14 -14 -12 -12 -10 -9 -9 -9 -8 -8 -8 -7 -7 -7 -6 -6 -7 -7 -7 -7 -8 -8 -8 -9 -8
-20 -21 -20 -20 -20 -20 -19 -19 -19 -18 -17 -17 -16 -16 -16 -15 -16 -15 -15 -14 -14 -13 -12 -11 -10 -9 -9 -9 -8 -8 -7 -7 -7 -7 -7 -7 -7 -7 -8 -8 -7 -6 -7 -8
-21 -21 -21 -20 -20 -20 -20 -19 -19 -19 -17 -17 -17 -16 -16 -15 -15 -15 -14 -14 -13 -12 -11 -11 -10 -11 -9 -9 -9 -9 -9 -8 -7 -7 -8 -8 -7 -7 -8 -8 -8 -8 -7 -8
-22 -21 -21 -21 -20 -21 -20 -20 -19 -19 -19 -17 -16 -16 -16 -15 -15 -14 -14 -14 -13 -13 -11 -10 -10 -10 -10 -9 -10 -9 -9 -9 -8 -7 -8 -8 -8 -8 -8 -8 -9 -9 -9 -7
-22 -22 -22 -21 -21 -21 -20 -20 -20 -19 -19 -19 -18 -16 -15 -15 -14 -14 -13 -13 -13 -12 -11 -11 -10 -11 -11 -10 -10 -10 -9 -9 -9 -8 -8 -8 -8 -8 -8 -6 -8 -9 -9 -8
-23 -23 -22 -22 -22 -22 -21 -21 -21 -20 -19 -19 -19 -18 -16 -15 -14 -13 -13 -13 -12 -12 -12 -11 -10 -11 -11 -11 -11 -10 -10 -9 -9 -9 -9 -9 -8 -9 -9 -8 -9 -9 -8 -9
-23 -23 -23 -23 -22 -22 -22 -22 -21 -21 -21 -19 -19 -19 -18 -18 -16 -15 -13 -13 -13 -12 -12 -12 -11 -11 -10 -11 -10 -10 -10 -10 -10 -10 -10 -9 -9 -9 -9 -10 -10 -10 -9 -9
-23 -23 -24 -24 -23 -23 -22 -22 -22 -21 -21 -21 -19 -19 -19 -18 -18 -17 -16 -14 -13 -12 -12 -12 -11 -10 -11 -11 -11 -11 -11 -10 -10 -10 -10 -10 -10 -9 -9 -9 -10 -9 -9 -9
-24 -24 -24 -24 -25 -24 -23 -23 -22 -22 -22 -21 -21 -20 -19 -19 -18 -17 -17 -17 -16 -15 -14 -12 -12 -12 -12 -12 -11 -12 -11 -11 -11 -11 -10 -10 -10 -10 -10 -10 -10 -10 -10 -10
-25 -25 -25 -25 -25 -25 -25 -24 -23 -22 -22 -22 -22 -21 -20 -20 -19 -18 -18 -17 -17 -17 -16 -15 -14 -14 -14 -13 -13 -12 -12 -11 -11 -11 -11 -11 -11 -11 -11 -11 -10 -10 -10 -10

GFSNGP_500_temp_060.txt.gz
Temp
-14 -15 -15 -15 -15 -14 -13 -12 -11 -11 -13 -11 -10 -10 -9 -9 -8 -8 -8 -8 -8 -9 -6 -7 -6 -4 -6 -7 -7 -7 -7 -6 -6 -6 -6 -6 -6 -5 -5 -5 -5 -5 -5 -4
-16 -15 -15 -15 -16 -15 -14 -14 -13 -12 -13 -10 -11 -10 -10 -10 -9 -8 -9 -9 -8 -7 -6 -7 -7 -7 -5 -6 -6 -6 -7 -7 -7 -6 -6 -6 -6 -6 -6 -5 -5 -5 -5 -5
-16 -16 -16 -15 -15 -16 -16 -15 -14 -13 -13 -11 -11 -11 -10 -10 -10 -9 -9 -10 -9 -8 -7 -6 -7 -5 -5 -6 -7 -7 -7 -9 -8 -7 -6 -6 -6 -6 -6 -6 -6 -5 -5 -5
-17 -18 -17 -15 -15 -16 -16 -16 -16 -15 -14 -12 -10 -12 -11 -11 -10 -10 -9 -10 -10 -8 -8 -7 -6 -7 -7 -6 -6 -6 -6 -8 -8 -7 -7 -6 -6 -6 -6 -6 -6 -5 -5 -5
-18 -19 -19 -19 -19 -18 -16 -16 -16 -16 -15 -14 -11 -12 -12 -11 -11 -10 -10 -10 -10 -8 -8 -8 -8 -6 -6 -6 -6 -5 -6 -7 -7 -7 -7 -6 -6 -6 -6 -6 -6 -6 -6 -5
-19 -19 -19 -20 -20 -20 -19 -16 -16 -16 -15 -14 -12 -12 -12 -12 -11 -11 -10 -10 -10 -9 -7 -7 -8 -8 -8 -7 -7 -6 -7 -7 -7 -8 -7 -6 -6 -6 -6 -6 -6 -6 -6 -5
-19 -19 -19 -20 -21 -21 -21 -17 -17 -16 -16 -15 -13 -13 -12 -12 -12 -11 -11 -10 -10 -10 -8 -7 -8 -9 -8 -7 -8 -8 -8 -8 -8 -8 -7 -7 -7 -7 -7 -7 -6 -5 -5 -5
-19 -20 -20 -20 -20 -20 -20 -19 -18 -17 -16 -16 -14 -13 -13 -13 -12 -12 -11 -11 -10 -10 -10 -8 -9 -10 -9 -7 -7 -8 -7 -8 -9 -8 -7 -7 -7 -7 -7 -7 -6 -6 -5 -5
-19 -20 -20 -19 -20 -20 -20 -19 -19 -18 -17 -15 -14 -13 -13 -13 -12 -12 -13 -11 -11 -11 -11 -10 -10 -9 -8 -7 -7 -8 -6 -7 -9 -8 -8 -8 -7 -7 -6 -7 -7 -6 -6 -6
-19 -19 -19 -19 -19 -19 -19 -19 -19 -19 -17 -16 -15 -14 -13 -13 -13 -11 -12 -12 -11 -10 -11 -10 -10 -10 -9 -7 -8 -9 -9 -9 -8 -7 -8 -8 -8 -7 -7 -7 -7 -6 -6 -6
-20 -20 -20 -19 -19 -18 -18 -18 -18 -18 -18 -17 -16 -15 -15 -13 -12 -12 -12 -12 -11 -11 -10 -11 -11 -11 -9 -9 -7 -8 -9 -8 -8 -8 -7 -8 -8 -8 -8 -8 -7 -8 -7 -7
-19 -19 -19 -20 -19 -19 -18 -17 -17 -17 -17 -17 -17 -16 -15 -14 -12 -12 -12 -12 -12 -11 -11 -10 -11 -10 -10 -10 -8 -9 -8 -9 -7 -8 -8 -8 -8 -9 -8 -8 -8 -8 -7 -8
-19 -19 -19 -19 -19 -19 -19 -18 -18 -17 -17 -17 -17 -16 -16 -16 -15 -13 -12 -12 -12 -11 -11 -10 -10 -10 -10 -10 -9 -9 -8 -7 -6 -7 -7 -8 -8 -8 -8 -8 -8 -8 -8 -8
-19 -19 -19 -19 -19 -20 -19 -19 -18 -17 -17 -17 -16 -17 -18 -18 -18 -15 -12 -12 -11 -11 -10 -11 -11 -10 -10 -10 -10 -9 -8 -8 -7 -7 -8 -7 -8 -8 -8 -8 -8 -8 -8 -9
-19 -19 -19 -20 -20 -19 -20 -19 -18 -17 -17 -18 -18 -18 -20 -19 -18 -16 -14 -11 -12 -12 -11 -11 -11 -11 -11 -10 -10 -8 -7 -8 -7 -7 -7 -8 -7 -8 -8 -8 -8 -8 -8 -9
-19 -19 -20 -20 -20 -20 -19 -20 -19 -18 -17 -18 -18 -18 -18 -18 -18 -18 -16 -14 -11 -12 -11 -11 -11 -11 -11 -10 -9 -8 -8 -7 -7 -7 -7 -7 -7 -8 -8 -8 -8 -8 -9 -9
-20 -20 -21 -20 -20 -20 -20 -20 -20 -19 -18 -18 -18 -18 -17 -17 -17 -17 -16 -16 -14 -12 -12 -12 -12 -11 -11 -11 -11 -9 -8 -8 -7 -7 -7 -7 -8 -8 -8 -7 -8 -7 -8 -9
-20 -20 -20 -20 -20 -20 -20 -20 -20 -19 -19 -18 -18 -17 -17 -17 -17 -17 -16 -17 -17 -15 -13 -12 -12 -12 -11 -10 -11 -11 -8 -8 -8 -8 -8 -8 -7 -7 -7 -8 -8 -8 -8 -8
-20 -20 -21 -21 -20 -20 -20 -20 -20 -20 -19 -19 -19 -17 -17 -16 -16 -16 -16 -16 -15 -15 -14 -13 -12 -12 -12 -11 -11 -11 -9 -9 -8 -8 -8 -8 -8 -7 -7 -7 -7 -8 -8 -8
-21 -21 -21 -22 -21 -21 -21 -21 -20 -20 -20 -19 -19 -19 -18 -17 -17 -17 -16 -16 -16 -15 -14 -13 -13 -13 -12 -12 -10 -10 -11 -9 -8 -8 -8 -8 -8 -8 -8 -7 -7 -7 -7 -7
-22 -22 -21 -21 -22 -22 -22 -21 -21 -20 -20 -20 -19 -19 -19 -18 -16 -16 -16 -17 -16 -15 -14 -14 -14 -13 -12 -12 -10 -9 -10 -10 -8 -8 -8 -8 -9 -8 -8 -7 -7 -7 -7 -7
-22 -22 -22 -22 -22 -22 -22 -22 -21 -21 -20 -20 -21 -19 -18 -19 -17 -16 -16 -16 -16 -15 -15 -15 -14 -13 -12 -10 -9 -11 -10 -9 -9 -9 -8 -8 -9 -8 -8 -7 -8 -7 -7 -7
-23 -23 -23 -22 -22 -22 -22 -22 -22 -22 -21 -20 -20 -21 -20 -18 -18 -17 -16 -15 -16 -15 -15 -15 -14 -13 -14 -12 -10 -11 -10 -10 -10 -9 -8 -9 -8 -7 -6 -8 -9 -9 -8 -7
-23 -23 -23 -23 -23 -23 -23 -22 -22 -22 -22 -21 -20 -20 -20 -20 -18 -18 -17 -15 -15 -14 -14 -14 -13 -13 -14 -12 -12 -11 -10 -10 -9 -9 -8 -9 -9 -8 -8 -9 -8 -8 -8 -8
-24 -24 -24 -24 -24 -23 -23 -23 -23 -22 -22 -22 -21 -21 -20 -20 -21 -19 -17 -16 -14 -15 -14 -13 -13 -13 -13 -12 -11 -11 -11 -10 -10 -10 -10 -9 -9 -9 -9 -10 -10 -9 -9 -10
-24 -24 -25 -25 -25 -24 -24 -24 -24 -23 -22 -22 -22 -22 -21 -20 -19 -20 -19 -17 -16 -15 -14 -13 -13 -13 -12 -12 -11 -11 -11 -11 -10 -11 -11 -11 -9 -10 -10 -10 -10 -10 -10 -10
-25 -26 -25 -25 -25 -26 -25 -24 -24 -24 -23 -23 -22 -22 -22 -21 -20 -19 -19 -19 -18 -17 -15 -14 -13 -13 -13 -13 -11 -11 -11 -12 -11 -11 -11 -11 -11 -11 -11 -11 -11 -11 -11 -11

GFSNGP_500_temp_063.txt.gz
Temp
-14 -15 -15 -15 -15 -14 -14 -14 -13 -12 -10 -10 -9 -8 -9 -10 -9 -8 -8 -9 -7 -6 -7 -7 -6 -6 -6 -6 -6 -6 -6 -5 -6 -6 -6 -6 -6 -6 -6 -6 -6 -5 -5 -5
-15 -14 -15 -15 -15 -15 -15 -14 -14 -13 -12 -12 -11 -10 -9 -9 -10 -9 -8 -8 -7 -7 -6 -6 -6 -6 -5 -6 -6 -6 -6 -6 -6 -6 -6 -6 -6 -6 -6 -6 -6 -6 -5 -5
-15 -15 -15 -15 -15 -15 -15 -15 -14 -14 -13 -11 -12 -12 -11 -10 -10 -10 -9 -8 -8 -8 -7 -7 -7 -6 -6 -6 -8 -7 -7 -6 -7 -6 -6 -6 -6 -6 -6 -6 -6 -6 -6 -5
-15 -16 -15 -15 -15 -15 -16 -16 -15 -14 -14 -13 -13 -12 -12 -11 -10 -10 -9 -9 -8 -8 -8 -8 -8 -7 -8 -7 -8 -7 -7 -7 -6 -7 -6 -6 -6 -5 -6 -6 -6 -6 -6 -6
-15 -15 -16 -16 -16 -16 -16 -15 -16 -15 -15 -14 -14 -13 -12 -12 -11 -11 -10 -9 -8 -8 -8 -8 -8 -8 -8 -7 -8 -7 -7 -7 -6 -6 -7 -6 -6 -6 -6 -6 -5 -5 -6 -6
-16 -16 -16 -17 -17 -17 -17 -17 -16 -16 -16 -15 -14 -13 -13 -12 -13 -12 -11 -10 -9 -8 -8 -7 -7 -7 -8 -8 -7 -7 -7 -7 -6 -7 -7 -6 -6 -6 -6 -6 -5 -5 -5 -6
-17 -16 -16 -17 -17 -18 -18 -17 -17 -17 -16 -16 -15 -14 -14 -13 -13 -13 -12 -10 -9 -9 -9 -8 -8 -7 -8 -8 -8 -7 -7 -7 -7 -7 -7 -7 -7 -6 -6 -6 -5 -5 -5 -5
-17 -17 -17 -18 -18 -19 -19 -19 -19 -19 -18 -17 -16 -15 -14 -14 -13 -13 -12 -12 -10 -10 -10 -8 -8 -7 -8 -7 -8 -8 -8 -8 -7 -7 -7 -7 -7 -6 -6 -6 -5 -6 -5 -4
-17 -18 -18 -18 -18 -19 -19 -19 -20 -19 -20 -18 -16 -17 -15 -15 -14 -13 -12 -12 -11 -11 -11 -10 -9 -8 -8 -8 -8 -7 -9 -8 -8 -8 -8 -8 -8 -7 -7 -6 -6 -6 -6 -6
-18 -18 -18 -18 -19 -19 -19 -19 -19 -19 -19 -19 -17 -17 -16 -16 -15 -13 -13 -12 -12 -11 -11 -11 -9 -8 -8 -8 -8 -8 -7 -8 -9 -8 -8 -8 -9 -9 -8 -7 -7 -7 -6 -6
-18 -18 -18 -19 -19 -19 -19 -19 -19 -19 -19 -19 -18 -18 -17 -16 -16 -15 -13 -13 -13 -11 -10 -10 -11 -10 -9 -8 -8 -8 -8 -7 -7 -8 -8 -9 -9 -8 -8 -8 -8 -7 -7 -7
-18 -19 -18 -19 -19 -19 -19 -20 -19 -19 -18 -17 -18 -18 -18 -17 -16 -16 -14 -13 -13 -13 -11 -10 -10 -10 -10 -9 -9 -8 -8 -9 -8 -8 -8 -8 -8 -9 -9 -8 -8 -8 -8 -7
-19 -19 -19 -19 -19 -19 -19 -19 -19 -18 -17 -17 -17 -17 -17 -17 -17 -16 -15 -14 -12 -12 -12 -11 -10 -10 -11 -11 -10 -9 -9 -9 -8 -8 -7 -8 -7 -9 -9 -9 -9 -8 -8 -8
-19 -19 -19 -19 -19 -19 -19 -20 -20 -19 -18 -17 -17 -17 -16 -16 -16 -16 -16 -14 -13 -12 -12 -12 -11 -10 -10 -11 -10 -9 -8 -9 -8 -8 -7 -7 -7 -8 -9 -9 -8 -9 -8 -8
-19 -19 -20 -20 -20 -20 -20 -20 -20 -20 -19 -18 -17 -17 -16 -16 -16 -16 -17 -16 -15 -13 -13 -12 -12 -11 -10 -10 -10 -9 -9 -9 -8 -8 -8 -8 -7 -8 -8 -8 -9 -8 -8 -9
-19 -19 -20 -21 -20 -20 -20 -20 -20 -20 -20 -19 -17 -17 -17 -17 -17 -17 -19 -18 -17 -14 -12 -12 -12 -12 -11 -9 -11 -10 -9 -8 -9 -9 -8 -8 -8 -8 -8 -8 -9 -8 -8 -9
-20 -20 -20 -21 -20 -20 -20 -20 -20 -20 -20 -20 -19 -17 -17 -17 -17 -17 -18 -19 -17 -16 -14 -11 -12 -12 -12 -11 -10 -10 -9 -9 -9 -8 -8 -8 -7 -7 -7 -8 -8 -8 -9 -9
-21 -21 -21 -21 -21 -20 -20 -21 -20 -20 -20 -20 -20 -19 -17 -17 -17 -18 -17 -17 -18 -19 -18 -15 -12 -12 -12 -12 -12 -11 -10 -10 -9 -8 -8 -8 -7 -7 -8 -7 -7 -8 -8 -9
-21 -21 -22 -22 -22 -21 -21 -21 -21 -21 -21 -20 -20 -20 -19 -17 -17 -17 -17 -18 -17 -18 -17 -17 -15 -11 -12 -12 -11 -11 -10 -10 -10 -10 -10 -9 -9 -8 -7 -7 -7 -8 -8 -8
-22 -22 -22 -22 -22 -22 -22 -21 -21 -21 -21 -21 -21 -20 -20 -19 -17 -16 -17 -17 -17 -17 -17 -17 -17 -15 -12 -12 -11 -11 -11 -11 -10 -10 -10 -10 -9 -8 -7 -7 -7 -8 -8 -8
-22 -22 -22 -22 -23 -23 -23 -22 -22 -21 -22 -21 -21 -21 -20 -20 -19 -18 -17 -17 -17 -17 -17 -17 -18 -16 -13 -12 -12 -11 -11 -11 -10 -11 -11 -9 -8 -8 -8 -8 -7 -8 -8 -8
-22 -23 -22 -22 -23 -23 -23 -23 -22 -22 -22 -22 -21 -21 -20 -20 -20 -19 -18 -17 -17 -17 -17 -17 -17 -17 -17 -13 -12 -12 -12 -11 -10 -10 -10 -10 -9 -9 -9 -8 -8 -8 -8 -7
-23 -23 -24 -23 -23 -23 -23 -23 -23 -23 -22 -22 -22 -22 -22 -20 -20 -20 -20 -18 -17 -17 -16 -17 -16 -17 -16 -16 -14 -12 -12 -11 -11 -10 -10 -10 -9 -10 -9 -9 -8 -8 -7 -7
-23 -24 -24 -24 -24 -23 -23 -23 -24 -23 -23 -23 -22 -22 -22 -22 -20 -20 -20 -19 -18 -17 -17 -16 -16 -16 -17 -15 -14 -12 -11 -11 -10 -10 -9 -10 -10 -10 -10 -9 -9 -8 -7 -7
-23 -24 -24 -24 -24 -24 -24 -24 -24 -25 -24 -23 -23 -22 -22 -22 -22 -21 -20 -20 -20 -19 -17 -16 -17 -16 -16 -16 -14 -13 -12 -11 -11 -11 -11 -11 -10 -11 -10 -10 -9 -8 -8 -8
-24 -24 -24 -24 -25 -25 -25 -24 -25 -25 -24 -24 -23 -22 -22 -22 -22 -22 -22 -20 -20 -19 -18 -17 -16 -16 -16 -15 -15 -14 -12 -12 -12 -11 -11 -11 -10 -10 -10 -10 -9 -9 -9 -9
-25 -25 -25 -25 -26 -25 -25 -25 -25 -25 -25 -24 -24 -24 -23 -22 -22 -22 -22 -22 -21 -19 -19 -18 -16 -15 -15 -15 -15 -14 -15 -13 -13 -13 -11 -11 -11 -11 -11 -10 -10 -9 -11 -9

GFSNGP_500_temp_069.txt.gz
Temp
-14 -14 -13 -13 -12 -12 -12 -11 -11 -10 -10 -10 -9 -10 -9 -9 -8 -8 -8 -8 -8 -9 -9 -9 -8 -8 -8 -7 -6 -6 -7 -7 -7 -7 -6 -6 -5 -6 -6 -5 -5 -5 -5 -5
-15 -14 -14 -14 -14 -13 -12 -12 -11 -11 -11 -10 -10 -10 -10 -9 -9 -8 -8 -8 -8 -8 -8 -9 -9 -8 -8 -8 -8 -7 -7 -7 -7 -7 -6 -6 -6 -6 -5 -5 -5 -5 -5 -5
-15 -15 -15 -14 -14 -14 -13 -13 -13 -12 -12 -12 -11 -11 -10 -10 -10 -9 -9 -8 -8 -8 -8 -8 -8 -8 -8 -8 -8 -8 -8 -8 -7 -7 -7 -6 -6 -6 -5 -5 -5 -5 -5 -5
-15 -15 -15 -14 -15 -14 -14 -14 -14 -14 -13 -12 -12 -12 -12 -11 -10 -10 -9 -9 -9 -9 -9 -8 -8 -8 -8 -8 -8 -7 -7 -8 -8 -7 -7 -7 -7 -6 -6 -5 -5 -5 -5 -5
-15 -15 -15 -15 -15 -15 -15 -14 -14 -14 -14 -14 -14 -14 -13 -13 -12 -11 -11 -10 -9 -9 -9 -9 -8 -9 -8 -8 -8 -8 -8 -7 -8 -7 -7 -7 -7 -7 -6 -6 -5 -5 -5 -5
-15 -15 -15 -15 -15 -15 -15 -15 -15 -15 -14 -14 -14 -14 -14 -14 -13 -12 -11 -11 -10 -10 -9 -10 -9 -9 -9 -9 -8 -9 -8 -7 -8 -7 -7 -8 -7 -7 -7 -6 -6 -6 -5 -5
-15 -15 -15 -15 -15 -15 -15 -14 -15 -15 -15 -15 -15 -14 -14 -13 -13 -13 -12 -11 -11 -11 -10 -10 -10 -9 -9 -9 -9 -9 -9 -9 -8 -8 -8 -7 -8 -7 -7 -7 -6 -6 -6 -6
-16 -16 -16 -16 -16 -15 -15 -15 -15 -15 -14 -14 -14 -14 -14 -15 -14 -13 -13 -12 -12 -11 -11 -10 -10 -10 -10 -9 -9 -9 -9 -9 -9 -9 -8 -8 -8 -8 -8 -7 -7 -6 -6 -6
-17 -17 -17 -16 -16 -16 -16 -15 -15 -15 -15 -15 -15 -15 -15 -15 -15 -15 -14 -13 -12 -12 -11 -11 -10 -10 -10 -10 -10 -9 -9 -9 -9 -9 -9 -8 -9 -8 -8 -7 -7 -7 -7 -7
-17 -18 -17 -17 -17 -17 -17 -17 -16 -16 -16 -16 -15 -15 -15 -15 -15 -15 -15 -14 -13 -12 -12 -12 -12 -11 -10 -10 -10 -10 -9 -9 -9 -9 -9 -9 -9 -9 -8 -8 -8 -7 -7 -7
-18 -18 -18 -18 -18 -18 -18 -18 -17 -18 -17 -17 -17 -16 -16 -16 -15 -15 -15 -15 -15 -13 -12 -12 -12 -12 -11 -10 -10 -10 -10 -9 -9 -9 -9 -9 -9 -9 -9 -9 -8 -7 -8 -8
-18 -18 -18 -18 -18 -18 -18 -18 -18 -18 -17 -17 -17 -17 -16 -16 -16 -15 -15 -15 -15 -15 -14 -12 -12 -12 -12 -12 -11 -11 -10 -10 -9 -9 -9 -9 -9 -9 -9 -9 -9 -8 -8 -8
-19 -19 -18 -18 -18 -18 -18 -18 -18 -18 -18 -18 -17 -17 -17 -16 -16 -16 -16 -15 -15 -15 -15 -15 -12 -12 -12 -12 -12 -11 -11 -10 -11 -9 -9 -8 -8 -8 -8 -9 -9 -9 -8 -8
-19 -19 -19 -19 -18 -18 -19 -18 -18 -18 -19 -19 -18 -18 -18 -18 -18 -17 -16 -16 -15 -15 -15 -16 -16 -12 -12 -12 -12 -12 -11 -10 -10 -11 -9 -8 -8 -9 -9 -8 -9 -9 -9 -8
-19 -19 -19 -20 -19 -19 -19 -19 -19 -19 -19 -19 -19 -19 -19 -19 -19 -18 -17 -16 -16 -16 -16 -16 -16 -15 -12 -12 -12 -12 -12 -11 -10 -11 -10 -9 -8 -8 -9 -9 -9 -9 -8 -8
-19 -20 -20 -20 -20 -20 -20 -20 -20 -20 -20 -20 -20 -20 -20 -20 -19 -19 -18 -18 -17 -17 -16 -17 -17 -17 -16 -14 -12 -12 -12 -12 -11 -10 -11 -10 -9 -9 -9 -9 -8 -9 -9 -9
-20 -20 -20 -20 -20 -20 -20 -20 -20 -21 -21 -21 -21 -21 -20 -20 -20 -19 -19 -18 -17 -17 -17 -17 -17 -17 -17 -17 -13 -12 -12 -12 -12 -11 -11 -10 -9 -9 -9 -9 -8 -8 -8 -9
-20 -21 -21 -21 -21 -21 -21 -21 -21 -21 -21 -22 -22 -21 -21 -21 -20 -20 -19 -18 -18 -17 -17 -17 -17 -17 -17 -17 -16 -13 -12 -12 -12 -11 -10 -11 -10 -9 -9 -10 -8 -8 -8 -9
-21 -21 -22 -22 -21 -21 -22 -21 -22 -22 -22 -22 -23 -22 -22 -21 -21 -21 -20 -19 -18 -17 -17 -17 -17 -17 -17 -16 -16 -16 -13 -12 -12 -11 -11 -10 -10 -10 -9 -10 -9 -8 -9 -9
-21 -21 -21 -22 -22 -22 -22 -22 -22 -23 -22 -23 -23 -23 -22 -22 -21 -21 -21 -19 -18 -17 -17 -16 -16 -16 -16 -16 -16 -16 -16 -14 -12 -12 -11 -11 -10 -10 -9 -9 -10 -9 -9 -9
-21 -22 -22 -22 -22 -22 -22 -23 -23 -23 -23 -23 -23 -23 -23 -22 -22 -22 -21 -20 -19 -18 -18 -17 -16 -16 -16 -16 -16 -16 -15 -15 -13 -12 -11 -11 -10 -10 -10 -10 -11 -10 -9 -9
-22 -22 -23 -23 -23 -23 -23 -23 -24 -24 -24 -23 -23 -23 -23 -23 -22 -22 -21 -20 -20 -19 -18 -17 -17 -17 -16 -16 -17 -17 -18 -17 -15 -13 -12 -11 -10 -10 -10 -10 -11 -10 -10 -10
-22 -22 -23 -23 -24 -24 -23 -24 -24 -24 -24 -23 -23 -23 -23 -23 -23 -22 -22 -21 -20 -20 -19 -18 -18 -17 -17 -17 -17 -17 -17 -17 -16 -16 -13 -11 -11 -10 -10 -9 -10 -11 -11 -10
-22 -23 -23 -24 -24 -24 -24 -24 -24 -24 -24 -24 -24 -24 -23 -24 -23 -22 -22 -22 -21 -20 -20 -19 -18 -17 -17 -17 -17 -17 -17 -17 -17 -17 -16 -13 -11 -11 -10 -10 -10 -10 -10 -10
-23 -23 -24 -24 -25 -25 -25 -24 -24 -24 -24 -24 -24 -24 -24 -24 -23 -23 -23 -22 -21 -20 -20 -20 -18 -18 -17 -17 -17 -17 -16 -16 -16 -17 -17 -15 -12 -11 -11 -11 -10 -10 -10 -10
-24 -24 -26 -26 -26 -24 -24 -24 -25 -24 -25 -25 -24 -25 -24 -24 -23 -23 -23 -22 -21 -21 -20 -20 -19 -18 -18 -17 -17 -17 -17 -16 -17 -16 -16 -15 -13 -12 -12 -11 -11 -11 -11 -11
-25 -27 -27 -27 -26 -26 -25 -25 -25 -25 -25 -25 -25 -26 -25 -25 -25 -23 -23 -23 -22 -21 -21 -20 -20 -19 -18 -18 -18 -17 -17 -17 -17 -16 -15 -15 -14 -12 -12 -13 -12 -12 -12 -12

GFSNGP_500_temp_072.txt.gz
Temp
-15 -14 -13 -13 -12 -12 -11 -11 -12 -13 -11 -9 -9 -9 -9 -9 -9 -9 -9 -9 -9 -9 -9 -8 -8 -7 -7 -7 -7 -7 -7 -7 -7 -7 -7 -7 -6 -6 -6 -6 -6 -5 -5 -5
-15 -14 -14 -13 -12 -12 -12 -12 -12 -12 -10 -11 -10 -10 -10 -9 -9 -9 -9 -9 -9 -9 -9 -10 -9 -9 -8 -8 -8 -8 -8 -7 -7 -7 -7 -7 -7 -7 -7 -6 -6 -5 -5 -5
-15 -14 -14 -14 -14 -13 -13 -12 -12 -13 -11 -11 -11 -11 -10 -10 -10 -9 -9 -9 -9 -9 -9 -9 -9 -9 -9 -9 -8 -8 -8 -8 -8 -7 -7 -7 -7 -7 -7 -7 -6 -6 -6 -5
-15 -15 -15 -14 -13 -14 -13 -13 -13 -13 -12 -12 -12 -11 -11 -10 -10 -10 -9 -9 -9 -9 -9 -9 -9 -9 -9 -9 -8 -8 -8 -8 -8 -8 -7 -7 -7 -7 -7 -7 -6 -6 -6 -6
-15 -16 -15 -15 -14 -14 -14 -13 -13 -13 -13 -13 -13 -13 -12 -12 -11 -10 -10 -10 -9 -9 -9 -8 -8 -9 -9 -9 -9 -9 -9 -8 -8 -8 -9 -8 -7 -7 -7 -7 -7 -6 -6 -6
-15 -15 -15 -14 -15 -15 -15 -14 -14 -13 -13 -13 -13 -13 -12 -12 -12 -11 -10 -10 -10 -9 -9 -9 -8 -8 -8 -9 -10 -9 -9 -9 -9 -9 -9 -9 -8 -7 -7 -7 -7 -7 -6 -6
-16 -16 -15 -15 -15 -15 -15 -14 -14 -14 -14 -14 -14 -13 -12 -13 -13 -12 -11 -10 -10 -10 -10 -9 -9 -9 -9 -8 -9 -9 -9 -10 -9 -9 -9 -9 -7 -7 -8 -7 -7 -7 -7 -6
-16 -16 -15 -15 -15 -15 -15 -15 -15 -15 -15 -14 -14 -14 -14 -14 -13 -13 -12 -12 -11 -11 -10 -10 -9 -9 -9 -9 -8 -9 -9 -9 -10 -9 -8 -8 -8 -7 -8 -7 -7 -7 -7 -6
-17 -17 -16 -16 -15 -15 -15 -15 -15 -15 -15 -15 -15 -15 -14 -14 -14 -14 -14 -13 -13 -12 -11 -11 -10 -10 -9 -9 -9 -8 -9 -9 -9 -10 -9 -9 -9 -8 -8 -7 -7 -7 -7 -7
-17 -17 -17 -17 -17 -16 -16 -16 -16 -16 -16 -16 -15 -15 -15 -15 -14 -14 -14 -14 -13 -13 -12 -12 -11 -10 -10 -10 -9 -9 -8 -9 -9 -9 -9 -10 -9 -9 -9 -8 -8 -7 -7 -7
-18 -18 -18 -18 -17 -17 -17 -17 -17 -17 -17 -17 -16 -16 -16 -15 -15 -15 -14 -14 -14 -14 -13 -12 -12 -11 -10 -10 -10 -9 -9 -9 -9 -9 -9 -9 -9 -9 -9 -8 -7 -7 -7 -7
-18 -18 -18 -18 -18 -18 -17 -17 -17 -17 -17 -17 -17 -17 -17 -16 -16 -16 -15 -15 -14 -14 -13 -13 -13 -12 -11 -11 -10 -10 -10 -9 -9 -9 -9 -10 -9 -9 -9 -8 -8 -8 -7 -7
-18 -18 -18 -18 -18 -18 -18 -18 -18 -17 -17 -17 -17 -17 -17 -17 -17 -17 -16 -16 -15 -14 -14 -14 -13 -13 -13 -12 -11 -10 -10 -10 -9 -9 -9 -9 -9 -9 -8 -8 -8 -8 -8 -7
-18 -19 -19 -19 -18 -18 -18 -18 -18 -18 -18 -17 -17 -17 -17 -17 -17 -17 -17 -17 -16 -15 -14 -14 -14 -14 -14 -13 -13 -11 -10 -10 -10 -10 -9 -9 -9 -9 -8 -9 -9 -9 -8 -8
-19 -19 -18 -19 -19 -19 -19 -19 -19 -19 -18 -18 -18 -18 -18 -18 -18 -18 -18 -17 -17 -16 -15 -14 -14 -14 -13 -13 -14 -13 -13 -11 -10 -10 -10 -9 -9 -9 -8 -8 -8 -9 -9 -9
-19 -19 -19 -19 -19 -19 -19 -19 -19 -19 -19 -19 -19 -19 -19 -19 -19 -19 -19 -18 -18 -18 -16 -15 -15 -14 -13 -13 -13 -14 -14 -14 -12 -11 -10 -10 -9 -9 -9 -9 -8 -8 -9 -9
-20 -19 -19 -19 -20 -20 -20 -20 -20 -20 -20 -20 -20 -20 -20 -20 -20 -20 -20 -19 -19 -19 -18 -17 -16 -15 -14 -14 -14 -14 -14 -14 -15 -12 -11 -10 -10 -9 -9 -9 -9 -8 -9 -9
-20 -20 -20 -20 -20 -21 -21 -20 -20 -21 -21 -21 -21 -21 -21 -21 -21 -21 -21 -20 -20 -19 -19 -17 -16 -15 -15 -14 -14 -14 -15 -15 -15 -15 -12 -11 -11 -10 -10 -9 -10 -8 -8 -9
-21 -21 -21 -21 -20 -21 -21 -21 -21 -21 -22 -21 -21 -22 -21 -21 -22 -22 -21 -21 -20 -20 -20 -19 -17 -16 -15 -15 -15 -15 -15 -15 -16 -16 -16 -12 -11 -11 -10 -9 -9 -10 -9 -8
-21 -21 -21 -21 -21 -21 -22 -22 -22 -22 -22 -22 -22 -22 -22 -22 -22 -22 -22 -22 -21 -21 -20 -19 -18 -17 -16 -15 -15 -15 -15 -16 -16 -17 -17 -15 -12 -11 -11 -10 -9 -10 -10 -8
-21 -21 -21 -21 -21 -21 -22 -22 -22 -22 -22 -23 -22 -22 -23 -23 -23 -23 -22 -22 -22 -21 -20 -19 -17 -17 -17 -16 -15 -15 -15 -16 -16 -17 -16 -17 -15 -13 -12 -11 -10 -10 -10 -10
-21 -21 -21 -22 -22 -22 -22 -22 -22 -22 -23 -23 -23 -23 -23 -23 -23 -23 -23 -22 -22 -22 -21 -20 -19 -18 -17 -16 -16 -16 -16 -16 -16 -17 -16 -17 -17 -16 -13 -12 -11 -10 -10 -10
-21 -21 -21 -22 -22 -23 -23 -23 -23 -23 -23 -23 -23 -24 -23 -24 -23 -23 -23 -23 -22 -22 -21 -20 -20 -19 -18 -18 -17 -16 -16 -16 -17 -16 -17 -17 -16 -15 -15 -12 -11 -11 -10 -10
-22 -22 -22 -22 -23 -23 -23 -24 -24 -24 -24 -24 -24 -24 -24 -24 -23 -23 -23 -23 -22 -22 -22 -21 -20 -19 -19 -18 -17 -17 -16 -16 -17 -17 -17 -17 -17 -16 -15 -13 -12 -11 -11 -11
-22 -23 -23 -24 -24 -24 -25 -25 -24 -24 -24 -24 -24 -24 -24 -24 -24 -24 -24 -23 -23 -22 -22 -21 -20 -19 -19 -18 -17 -17 -17 -17 -17 -17 -17 -17 -17 -17 -17 -15 -13 -11 -11 -11
-24 -24 -24 -25 -26 -25 -25 -25 -25 -25 -24 -24 -24 -24 -25 -24 -24 -24 -24 -23 -23 -23 -22 -22 -21 -20 -19 -18 -17 -17 -17 -16 -16 -17 -17 -17 -17 -17 -17 -17 -15 -12 -11 -11
-24 -24 -25 -26 -27 -26 -25 -25 -25 -25 -25 -25 -24 -25 -24 -24 -25 -24 -24 -24 -23 -23 -23 -22 -21 -20 -19 -19 -18 -17 -17 -17 -17 -17 -17 -16 -16 -16 -16 -17 -15 -13 -12 -12

GFSNGP_500_temp_075.txt.gz
Temp
-14 -13 -14 -15 -12 -11 -11 -11 -12 -12 -11 -11 -11 -9 -9 -9 -9 -9 -9 -9 -9 -9 -9 -8 -8 -7 -6 -7 -7 -7 -7 -7 -7 -7 -6 -6 -7 -7 -6 -7 -7 -7 -6 -5
-15 -14 -14 -13 -12 -11 -11 -12 -13 -13 -11 -10 -10 -10 -9 -9 -9 -9 -9 -9 -9 -9 -9 -9 -8 -8 -7 -7 -8 -8 -7 -7 -7 -7 -7 -7 -7 -7 -7 -7 -7 -7 -7 -6
-17 -16 -15 -14 -13 -13 -13 -13 -14 -14 -11 -10 -10 -10 -10 -10 -10 -9 -9 -9 -9 -9 -9 -10 -9 -9 -8 -8 -8 -8 -7 -8 -7 -7 -7 -7 -7 -7 -7 -7 -7 -7 -7 -7
-17 -16 -15 -15 -14 -13 -14 -13 -14 -13 -10 -10 -11 -11 -11 -10 -10 -10 -10 -10 -9 -9 -9 -9 -9 -9 -9 -9 -8 -8 -8 -8 -8 -8 -8 -8 -7 -7 -6 -6 -7 -7 -7 -7
-16 -17 -17 -15 -15 -16 -15 -14 -15 -14 -13 -13 -12 -12 -11 -11 -10 -10 -10 -10 -10 -10 -10 -9 -9 -9 -9 -9 -9 -9 -9 -9 -8 -8 -8 -7 -7 -7 -7 -7 -6 -7 -7 -7
-16 -16 -17 -17 -14 -15 -15 -15 -15 -15 -14 -13 -13 -14 -11 -10 -10 -10 -10 -10 -10 -9 -9 -9 -9 -9 -9 -9 -9 -9 -9 -9 -9 -8 -8 -8 -8 -7 -7 -7 -7 -6 -7 -6
-16 -16 -17 -14 -15 -16 -15 -15 -14 -14 -14 -13 -14 -13 -11 -12 -12 -12 -11 -10 -10 -10 -10 -9 -9 -9 -9 -9 -9 -9 -9 -9 -9 -8 -8 -8 -8 -8 -8 -9 -8 -7 -7 -7
-16 -16 -16 -14 -16 -16 -15 -15 -14 -14 -14 -14 -14 -14 -13 -13 -13 -13 -12 -11 -11 -10 -10 -10 -10 -9 -9 -9 -9 -9 -9 -9 -9 -9 -9 -9 -8 -9 -8 -9 -8 -7 -7 -7
-16 -16 -15 -15 -15 -15 -15 -15 -15 -15 -14 -14 -14 -14 -14 -14 -14 -13 -13 -12 -12 -11 -11 -11 -10 -10 -10 -9 -9 -9 -9 -9 -9 -9 -9 -9 -9 -9 -8 -8 -8 -8 -8 -7
-17 -17 -17 -16 -16 -16 -15 -15 -15 -15 -15 -15 -14 -14 -14 -14 -14 -14 -14 -13 -13 -12 -12 -12 -11 -11 -10 -10 -9 -9 -9 -8 -8 -8 -9 -9 -10 -9 -9 -8 -8 -8 -8 -8
-17 -17 -17 -17 -17 -16 -16 -16 -15 -15 -15 -15 -15 -15 -15 -15 -15 -14 -14 -14 -14 -13 -13 -13 -12 -12 -11 -11 -10 -10 -9 -9 -9 -8 -8 -8 -9 -10 -8 -8 -7 -7 -9 -9
-18 -18 -17 -17 -17 -17 -17 -17 -17 -16 -16 -16 -16 -16 -16 -16 -16 -16 -15 -15 -15 -14 -14 -14 -14 -13 -12 -12 -11 -10 -10 -10 -10 -9 -8 -8 -8 -8 -9 -8 -8 -8 -8 -7
-19 -18 -18 -18 -18 -18 -18 -17 -17 -17 -17 -17 -17 -17 -16 -16 -16 -16 -16 -16 -15 -16 -16 -15 -15 -14 -14 -13 -12 -11 -10 -10 -10 -10 -10 -9 -8 -8 -8 -9 -9 -8 -8 -7
-18 -18 -19 -18 -18 -18 -18 -18 -18 -17 -17 -17 -17 -17 -17 -17 -17 -17 -17 -17 -16 -16 -16 -16 -16 -15 -14 -13 -13 -12 -12 -11 -10 -10 -10 -10 -9 -9 -8 -8 -8 -9 -8 -7
-19 -18 -19 -18 -18 -19 -19 -19 -18 -18 -18 -18 -18 -17 -17 -17 -17 -17 -17 -17 -16 -16 -16 -16 -16 -16 -15 -14 -14 -13 -13 -12 -12 -11 -10 -10 -10 -9 -9 -8 -8 -8 -9 -9
-19 -19 -19 -19 -19 -19 -19 -19 -19 -19 -19 -19 -18 -18 -18 -18 -18 -18 -17 -17 -17 -17 -17 -17 -16 -16 -15 -15 -14 -14 -13 -12 -12 -12 -12 -11 -10 -10 -10 -9 -9 -8 -8 -9
-19 -19 -19 -19 -19 -19 -19 -19 -19 -20 -20 -20 -19 -19 -19 -19 -19 -19 -19 -19 -19 -18 -18 -18 -18 -17 -16 -16 -15 -14 -14 -13 -13 -12 -12 -12 -12 -12 -11 -10 -10 -9 -8 -8
-20 -20 -20 -20 -20 -20 -20 -20 -20 -20 -20 -20 -20 -20 -20 -20 -20 -20 -20 -20 -20 -20 -19 -19 -19 -19 -18 -18 -17 -16 -15 -13 -13 -12 -12 -12 -12 -13 -13 -12 -11 -10 -10 -9
-21 -20 -20 -20 -20 -20 -20 -20 -20 -20 -21 -21 -21 -21 -21 -21 -21 -21 -21 -21 -21 -21 -20 -20 -20 -20 -19 -19 -18 -17 -16 -14 -13 -13 -12 -12 -12 -13 -13 -13 -13 -12 -11 -10
-21 -21 -21 -21 -21 -21 -21 -21 -21 -21 -21 -21 -21 -21 -22 -22 -22 -22 -22 -22 -22 -22 -22 -22 -21 -21 -20 -19 -19 -18 -17 -16 -14 -13 -13 -13 -13 -13 -13 -13 -14 -14 -12 -11
-21 -21 -21 -21 -21 -21 -21 -22 -22 -21 -21 -22 -22 -22 -22 -22 -22 -22 -22 -22 -22 -22 -22 -23 -22 -22 -21 -20 -19 -18 -18 -16 -15 -14 -14 -13 -13 -14 -14 -14 -15 -14 -14 -13
-21 -21 -21 -21 -21 -21 -21 -21 -21 -22 -21 -21 -22 -22 -22 -23 -23 -23 -22 -23 -22 -22 -23 -22 -22 -22 -21 -20 -19 -18 -17 -16 -15 -14 -14 -14 -14 -14 -14 -15 -15 -15 -16 -14
-21 -21 -22 -22 -22 -22 -22 -22 -22 -22 -22 -21 -22 -22 -23 -23 -23 -23 -23 -23 -23 -23 -23 -23 -22 -22 -21 -20 -19 -19 -17 -16 -15 -14 -14 -15 -15 -15 -15 -15 -15 -16 -16 -17
-22 -22 -22 -22 -22 -23 -23 -23 -23 -23 -23 -22 -22 -23 -23 -23 -23 -23 -23 -23 -23 -23 -22 -23 -22 -22 -20 -20 -19 -19 -18 -18 -17 -16 -16 -16 -16 -15 -15 -15 -15 -16 -17 -16
-22 -22 -23 -24 -24 -25 -25 -24 -24 -24 -23 -23 -23 -24 -23 -23 -24 -23 -23 -23 -23 -23 -23 -23 -22 -22 -21 -20 -20 -19 -19 -18 -18 -17 -16 -16 -15 -16 -16 -16 -16 -17 -17 -17
-23 -23 -24 -24 -25 -25 -25 -24 -24 -25 -25 -23 -24 -24 -24 -24 -24 -24 -24 -24 -23 -23 -23 -23 -22 -22 -21 -20 -20 -19 -19 -18 -17 -17 -16 -16 -16 -16 -16 -16 -16 -16 -17 -17
-24 -24 -25 -25 -25 -25 -25 -25 -25 -25 -25 -25 -24 -24 -24 -24 -24 -24 -24 -24 -23 -24 -24 -23 -23 -22 -22 -21 -20 -19 -19 -18 -17 -17 -16 -16 -16 -16 -16 -16 -15 -16 -17 -18